sat.trackr.live / text

‹ back to catalog

STARLINK-34739

NORAD 65066 · 2025-165L

PAYLOAD ACTIVE UNKNOWN

§ Identity

Operator
Country
US
Launch date
2025-07-31
Launch site
AFWTR
Launch vehicle
Mass (kg)
RCS (m²)

Purposes: comms

External: N2YO · Heavens-Above · Gunter

§ Orbital elements

Epoch: 2026-05-25T04:16:25.546080Z

Period
95.64 min
Inclination
97.4500°
Eccentricity
0.0002714
Mean motion
15.05649873 rev/d
Perigee alt
547.6 km
Apogee alt
551.4 km
Semi-major
6,927.6 km
B*
-7.6239e-5
RAAN
222.3146°
Arg perigee
196.6801°
Mean anomaly
163.4337°
Rev number
4,630

§ Raw data

STARLINK-347391 65066U 25165L   26145.17807345 -.00001159  00000+0 -76239-4 0  99932 65066  97.4500 222.3146 0002714 196.6801 163.4337 15.05649873 46303

JSON: /api/v1/satellites/65066 · /tle

For live sub-satellite position, see the globe view (requires WebGL).

§ Visibility from observer

Set your observer location to see the next 7 days of passes ≥ 10°. The values pass through the URL so the page stays shareable.

No JS? Fill the form by hand. The geolocation button needs JavaScript.